This is the latest recevied weather packets stored in our database for station/object KD7DVD-1. If no packets are shown the sender has not sent any weather packets the latest 10 day(s).
| Time | Temp. | Humidity | Pressure | Rain* | Wind** | Luminosity | Snow |
|---|---|---|---|---|---|---|---|
| 1777276817 | 9.44° C | 85% | 1012.7 hPa | 0 mm | - | - | - |
| 1777275017 | 10° C | 85% | 1012.4 hPa | 0 mm | - | - | - |
| 1777273217 | 10.56° C | 84% | 1012 hPa | 0 mm | - | - | - |
| 1777271416 | 10.56° C | 82% | 1011.8 hPa | 0 mm | - | - | - |
| 1777269616 | 11.11° C | 77% | 1011.3 hPa | 0 mm | - | - | - |
| 1777267816 | 11.67° C | 75% | 1010.9 hPa | 0 mm | - | - | - |
| 1777266016 | 12.22° C | 71% | 1010.7 hPa | 0 mm | - | - | - |
| 1777264217 | 12.22° C | 67% | 1010.4 hPa | 0 mm | - | - | - |
| 1777262416 | 13.33° C | 64% | 1010.1 hPa | 0 mm | - | - | - |
| 1777260616 | 13.89° C | 60% | 1009.7 hPa | 0 mm | - | - | - |
| 1777258816 | 15.56° C | 56% | 1009.4 hPa | 0 mm | - | - | - |
| 1777257016 | 17.22° C | 51% | 1009.4 hPa | 0 mm | - | - | - |
| 1777255216 | 19.44° C | 40% | 1009.3 hPa | 0 mm | - | - | - |
| 1777253416 | 18.33° C | 29% | 1009.1 hPa | 0 mm | - | - | - |
| 1777251616 | 18.33° C | 26% | 1009 hPa | 0 mm | - | - | - |
| 1777249816 | 19.44° C | 27% | 1008.8 hPa | 0 mm | - | - | - |
| 1777248015 | 20.56° C | 28% | 1008.7 hPa | 0 mm | - | - | - |
| 1777246215 | 19.44° C | 28% | 1008.8 hPa | 0 mm | - | - | - |
| 1777244417 | 20.56° C | 28% | 1009 hPa | 0 mm | - | - | - |
| 1777242617 | 20.56° C | 31% | 1008.8 hPa | 0 mm | - | - | - |
| 1777240817 | 19.44° C | 32% | 1008.8 hPa | 0 mm | - | - | - |
| 1777239017 | 18.89° C | 32% | 1008.9 hPa | 0 mm | - | - | - |
| 1777237217 | 18.33° C | 35% | 1008.8 hPa | 0 mm | - | - | - |
| 1777235417 | 17.22° C | 37% | 1009 hPa | 0 mm | - | - | - |
| 1777233617 | 17.22° C | 37% | 1009.2 hPa | 0 mm | - | - | - |
* Rain latest hour (hover to see other rain measurements)
** Current wind speed in m/s (hover to see current wind gust speed)